TimeCET,TemperatureF,Dew PointF,Humidity,Sea Level PressureIn,VisibilityMPH,Wind Direction,Wind SpeedMPH,Gust SpeedMPH,PrecipitationIn,Events,Conditions,WindDirDegrees,DateUTC
12:15 AM,66.2,64.4,94,29.74,5.0,SSE,16.1,-,N/A,,Scattered Clouds,160,2012-11-04 23:15:00
12:45 AM,66.2,64.4,94,29.74,5.0,South,16.1,28.8,N/A,,Scattered Clouds,190,2012-11-04 23:45:00
1:15 AM,68.0,64.4,88,29.74,5.0,South,17.3,-,N/A,,Scattered Clouds,170,2012-11-05 00:15:00
1:45 AM,68.0,64.4,88,29.74,5.0,SSE,18.4,-,N/A,,Scattered Clouds,160,2012-11-05 00:45:00
2:15 AM,68.0,64.4,88,29.71,5.0,SSE,17.3,-,N/A,,Scattered Clouds,160,2012-11-05 01:15:00
2:45 AM,68.0,64.4,88,29.71,5.0,South,16.1,-,N/A,,Scattered Clouds,170,2012-11-05 01:45:00
3:15 AM,68.0,64.4,88,29.68,5.0,SSE,16.1,-,N/A,,Scattered Clouds,160,2012-11-05 02:15:00
3:45 AM,68.0,64.4,88,29.68,5.0,SSE,17.3,-,N/A,,Scattered Clouds,160,2012-11-05 02:45:00
4:15 AM,68.0,64.4,88,29.68,5.0,South,17.3,-,N/A,,Scattered Clouds,170,2012-11-05 03:15:00
4:45 AM,68.0,64.4,88,29.68,5.0,SSE,16.1,-,N/A,,Scattered Clouds,160,2012-11-05 03:45:00
5:15 AM,68.0,64.4,88,29.68,5.0,South,13.8,-,N/A,,Scattered Clouds,170,2012-11-05 04:15:00
5:45 AM,68.0,64.4,88,29.68,5.0,SSE,16.1,-,N/A,,Scattered Clouds,160,2012-11-05 04:45:00
6:15 AM,68.0,64.4,88,29.65,5.0,South,15.0,-,N/A,,Scattered Clouds,170,2012-11-05 05:15:00
6:45 AM,68.0,64.4,88,29.65,5.0,South,15.0,-,N/A,,Scattered Clouds,170,2012-11-05 05:45:00
7:15 AM,68.0,64.4,88,29.68,5.0,South,15.0,-,N/A,,Scattered Clouds,180,2012-11-05 06:15:00
7:45 AM,68.0,64.4,88,29.68,6.2,South,12.7,-,N/A,,Scattered Clouds,180,2012-11-05 06:45:00
8:15 AM,68.0,64.4,88,29.68,6.2,South,12.7,-,N/A,,Scattered Clouds,170,2012-11-05 07:15:00
8:45 AM,69.8,66.2,88,29.68,6.2,South,10.4,-,N/A,,Scattered Clouds,180,2012-11-05 07:45:00
9:15 AM,69.8,66.2,88,29.68,6.2,South,11.5,-,N/A,,Scattered Clouds,170,2012-11-05 08:15:00
9:45 AM,69.8,66.2,88,29.71,6.2,South,10.4,-,N/A,,Scattered Clouds,190,2012-11-05 08:45:00
10:15 AM,71.6,68.0,88,29.71,6.2,South,12.7,-,N/A,,Scattered Clouds,190,2012-11-05 09:15:00
10:45 AM,71.6,66.2,83,29.71,6.2,South,11.5,-,N/A,,Scattered Clouds,190,2012-11-05 09:45:00
11:15 AM,69.8,64.4,83,29.71,6.2,South,11.5,-,N/A,,Scattered Clouds,190,2012-11-05 10:15:00
11:45 AM,69.8,62.6,78,29.71,6.2,South,9.2,-,N/A,,Scattered Clouds,180,2012-11-05 10:45:00
12:15 PM,68.0,60.8,78,29.71,6.2,South,6.9,-,N/A,Rain,Light Rain,190,2012-11-05 11:15:00
12:45 PM,68.0,60.8,78,29.71,6.2,SW,8.1,-,N/A,Rain,Light Rain,220,2012-11-05 11:45:00
1:15 PM,68.0,64.4,88,29.71,6.2,SW,6.9,-,N/A,Rain,Light Rain,220,2012-11-05 12:15:00
1:45 PM,66.2,62.6,88,29.74,2.5,SW,5.8,-,N/A,Rain,Light Rain,220,2012-11-05 12:45:00
2:15 PM,66.2,62.6,88,29.71,4.3,SSW,6.9,-,N/A,Rain,Light Rain,200,2012-11-05 13:15:00
2:45 PM,66.2,62.6,88,29.74,5.6,SW,6.9,-,N/A,,Scattered Clouds,230,2012-11-05 13:45:00
3:15 PM,66.2,60.8,83,29.74,6.2,West,8.1,19.6,N/A,,Scattered Clouds,280,2012-11-05 14:15:00
3:45 PM,64.4,59.0,83,29.77,6.2,WSW,8.1,-,N/A,,Scattered Clouds,250,2012-11-05 14:45:00
4:15 PM,64.4,59.0,83,29.77,6.2,West,8.1,19.6,N/A,,Scattered Clouds,260,2012-11-05 15:15:00
4:45 PM,64.4,57.2,77,29.77,6.2,SW,8.1,-,N/A,,Scattered Clouds,230,2012-11-05 15:45:00
5:15 PM,62.6,57.2,82,29.77,6.2,SW,5.8,-,N/A,,Scattered Clouds,230,2012-11-05 16:15:00
5:45 PM,62.6,57.2,82,29.80,6.2,South,5.8,-,N/A,,Scattered Clouds,190,2012-11-05 16:45:00
6:15 PM,60.8,57.2,88,29.83,5.0,South,5.8,-,N/A,,Scattered Clouds,190,2012-11-05 17:15:00
6:45 PM,60.8,57.2,88,29.83,4.3,SSW,6.9,-,N/A,,Scattered Clouds,200,2012-11-05 17:45:00
7:15 PM,60.8,57.2,88,29.83,4.3,South,4.6,-,N/A,,Scattered Clouds,170,2012-11-05 18:15:00
7:45 PM,59.0,57.2,94,29.83,4.3,SSE,6.9,-,N/A,,Scattered Clouds,160,2012-11-05 18:45:00
8:15 PM,59.0,57.2,94,29.83,4.3,South,5.8,-,N/A,,Scattered Clouds,180,2012-11-05 19:15:00
8:45 PM,60.8,57.2,88,29.86,5.6,South,5.8,-,N/A,,Scattered Clouds,190,2012-11-05 19:45:00
9:15 PM,59.0,55.4,88,29.86,6.2,South,6.9,-,N/A,,Scattered Clouds,170,2012-11-05 20:15:00
9:45 PM,59.0,55.4,88,29.89,6.2,SSE,5.8,-,N/A,,Partly Cloudy,150,2012-11-05 20:45:00
10:15 PM,59.0,55.4,88,29.89,6.2,South,5.8,-,N/A,,Partly Cloudy,180,2012-11-05 21:15:00
10:45 PM,59.0,55.4,88,29.89,6.2,South,5.8,-,N/A,,Scattered Clouds,180,2012-11-05 21:45:00
11:15 PM,59.0,55.4,88,29.89,6.2,South,5.8,-,N/A,,Scattered Clouds,170,2012-11-05 22:15:00
11:45 PM,59.0,55.4,88,29.89,6.2,South,4.6,-,N/A,,Scattered Clouds,180,2012-11-05 22:45:00